Find Local Weather

World > North America > United States > Tennessee

Lawrenceburg, Tennessee Regional Weather

Lat: 35.25N, Lon: 87.34W
Wx Zone: TNZ094
Feedback
Expires:201811121800;;199935
ASUS44 KMEG 121710
RWRTN 
TENNESSEE HOURLY STATE WEATHER ROUNDUP
NATIONAL WEATHER SERVICE MEMPHIS TN
1100 AM CST MON NOV 12 2018


TNZ061-075-076-078-094-096-097-121800-
SOUTH MIDDLE TENNESSEE
  
CITY           SKY/WX    TMP DP  RH WIND       PRES   REMARKS
LAWRENCEBURG   CLOUDY    45  45 100 E5        30.14F FOG              
LEWISBURG      CLOUDY    45  45 100 CALM      30.15F FOG              
FAYETTEVILLE   PTSUNNY   45  45 100 NE8       30.13F FOG              
TULLAHOMA      CLOUDY    45  43  93 E5        30.16F FOG              
WINCHESTER     CLOUDY    45  43  93 E6        30.16F FOG              
MCMINNVILLE    CLOUDY    45  45 100 NE3       30.18F FOG              
COLUMBIA       CLOUDY    46  46 100 CALM      30.15F FOG              
SHELBYVILLE    PTSUNNY   45  45 100 E6        30.15F FOG              
$$


SKY/WX - Weather  TMP - Temperature  DP - Dew Point  RH - Relative Humidity
WIND - Wind Direction/Speed PRES - Barometric Pressure